Terminal Aerodrome Forecast
Issued by NWS

Current Version | Previous Version | Graphics & Text | Print | Product List | Glossary On
Versions: 1 2 3 4 5 6 7 8 9 10 11 12 13 14 15 16 17 18 19 20 21 22 23 24 25 26 27 28 29 30
000
FTUS41 KILN 131100
TAFLUK
TAF
KLUK 131124Z 1312/1412 33006KT P6SM OVC015
     FM131400 34010KT P6SM SCT030 SCT080
      TEMPO 1314/1316 OVC015
     FM132200 00000KT P6SM SKC=

USA.gov is the U.S. government's official web portal to all federal, state and local government web resources and services.